Voltar ao catálogo

SL-16 DEB

LostLEO
NORAD 39846·DEBRIS·🇷🇺 Russia

Lançado Dec 25, 1992 de Baikonur Cosmodrome

Loading…

Próximas Passagens (próximas 24 horas)

TLE

ObsoletoSource: Space-Track

Época: Nov 16, 2022, 05:49 UTC

1 39846U 92093KY  22320.24304057  .00003984  00000-0  14070-2 0  9995
2 39846  71.2759 299.2922 0083114 140.3106 220.4152 14.33303635944532

Acompanhe SL-16 DEB em tempo real com AllMySat

Download on the App Store